RH
4 4 26 33 52 75 90 96 97 96 96 96 95 34 25 18 16 13 9 8 7 7 7 7 8 8 8 9 12 24 33 29 34 28 20 22 28 31 33 43 57 58 67 69 65 65 67
4 4 4 8 14 26 71 73 94 95 91 96 97 91 68 25 19 16 12 10 9 8 8 9 9 9 9 12 25 24 25 22 22 24 24 28 33 52 48 58 65 66 61 59 61 58 54
5 4 4 4 4 8 26 60 50 65 62 90 96 96 98 58 28 18 14 12 10 10 10 10 10 10 11 12 16 17 18 20 25 36 50 64 75 86 84 77 68 61 49 42 37 28 26
7 6 5 5 5 5 5 5 6 16 31 57 88 97 96 82 25 17 14 13 11 11 11 12 13 14 14 18 20 23 26 35 53 65 79 83 79 70 60 45 44 36 29 21 13 11 9
12 8 5 5 33 5 5 6 7 8 9 11 45 95 96 97 81 21 14 13 12 12 14 17 21 22 23 22 21 26 42 61 66 75 84 65 41 27 18 19 19 11 12 8 7 6 6
16 12 8 6 5 5 7 8 10 8 9 10 13 36 85 96 85 57 19 13 14 16 21 25 25 29 29 32 47 70 69 74 79 74 47 30 14 10 10 8 8 7 6 6 6 5 4
18 16 12 7 18 40 12 40 60 18 21 17 33 35 84 96 88 34 15 17 36 41 37 42 49 49 79 85 76 73 75 68 46 25 15 10 10 8 7 6 5 5 4 4 4 3 2
24 17 14 16 46 50 70 26 19 38 48 49 82 77 88 95 95 95 74 34 75 65 64 66 59 75 90 89 82 73 52 23 14 11 10 9 7 7 6 5 4 3 3 3 2 2 2
31 18 14 91 16 24 28 24 21 66 37 28 38 90 96 97 98 96 52 58 54 46 55 59 76 91 78 76 40 26 16 11 10 9 7 6 5 4 4 3 2 2 2 1 1 1 1
28 18 16 16 22 18 38 72 65 53 31 36 40 84 99 97 96 99 98 94 48 62 66 84 84 85 68 32 22 14 11 9 8 6 5 4 3 3 2 1 1 1 2 1 2 2 2
24 16 14 13 19 60 95 53 38 44 50 48 69 100 98 98 99 99 97 97 97 74 83 75 66 40 27 15 11 10 8 7 5 4 3 2 2 1 1 1 1 1 2 2 4 9 26
21 18 18 24 51 100 70 19 20 40 34 67 98 95 97 97 99 99 98 92 90 97 96 74 47 20 11 10 9 7 6 4 3 2 2 1 1 1 1 2 2 3 6 13 44 46 54
25 28 23 23 28 98 25 12 30 38 33 46 89 98 97 98 97 97 97 99 99 94 83 53 15 10 10 8 6 4 3 2 2 1 1 2 2 2 3 4 15 16 88 55 53 83 93
28 27 29 24 33 85 15 16 26 46 37 76 99 99 98 97 99 98 99 98 94 97 35 12 11 10 6 5 3 2 2 2 2 2 2 2 6 8 24 33 46 79 90 99 55 58 64
30 27 24 28 30 20 18 22 42 49 83 98 98 96 95 97 99 99 98 100 83 17 11 11 8 6 4 2 2 2 2 2 2 2 2 2 6 23 54 74 83 99 87 70 56 76 88
35 31 26 22 20 20 26 27 38 53 98 97 98 97 96 100 100 98 96 35 13 12 12 6 5 3 2 2 2 2 2 2 2 2 2 9 26 42 64 100 88 85 72 69 98 81 100
34 31 26 19 18 31 32 57 68 100 98 98 99 99 99 99 98 97 23 14 12 11 6 4 3 3 2 2 2 2 2 2 2 3 14 41 53 71 100 92 94 94 92 99 92 100 100
26 26 22 20 44 74 88 89 90 98 98 98 98 97 98 100 100 61 14 13 11 6 4 3 3 3 3 2 2 3 3 3 4 16 24 64 74 73 100 100 97 79 92 78 97 100 100
17 28 27 25 74 75 70 94 72 93 99 100 91 98 100 98 60 14 13 10 6 4 3 3 3 3 3 3 3 4 3 4 7 13 34 62 100 84 99 100 100 91 100 94 100 100 99
17 26 30 51 78 97 86 77 96 99 98 96 92 98 94 23 14 14 11 6 4 4 3 3 3 3 3 4 4 4 4 4 6 15 37 44 76 84 87 97 97 100 100 100 100 100 100
80 94 34 100 82 68 73 98 99 98 99 92 98 76 22 15 14 12 7 4 4 4 4 4 4 4 4 5 6 5 4 4 6 10 33 38 41 43 47 75 100 100 100 100 100 99 100
100 54 34 78 97 100 99 98 99 100 98 99 44 20 15 14 14 8 5 4 4 4 4 5 5 5 6 8 8 7 6 5 5 10 18 23 26 28 64 74 82 89 99 100 100 100 100
49 81 96 100 99 100 99 99 99 100 96 41 19 15 15 15 8 6 4 4 5 6 6 6 6 7 8 10 10 10 8 6 5 8 13 15 33 61 62 39 49 85 73 92 91 100 100
94 100 100 99 98 99 100 100 99 91 39 21 16 15 15 12 8 5 5 6 7 6 6 7 8 9 11 12 13 12 10 8 6 6 13 19 22 75 82 90 95 98 61 57 67 83 84
100 100 98 98 99 100 99 98 80 32 22 18 15 16 14 8 7 5 6 6 8 8 8 9 10 12 13 15 15 16 14 11 8 7 6 9 14 40 75 99 87 99 59 42 40 40 46
99 99 99 99 99 99 97 63 31 24 19 16 15 16 11 8 5 6 7 8 9 9 9 12 12 13 16 18 18 18 18 15 10 8 8 6 8 16 39 80 66 54 38 58 26 94 91
99 98 99 98 99 96 66 36 27 22 19 17 16 16 9 9 6 6 8 9 10 9 12 14 14 16 16 20 22 22 22 20 17 13 9 8 6 7 12 34 94 56 48 41 61 67 35
99 97 98 97 84 60 43 29 24 21 19 17 16 13 9 8 6 7 8 10 10 12 15 16 17 17 19 22 24 26 26 25 24 21 16 12 10 8 8 9 13 18 23 26 26 24 22
99 98 96 93 80 35 30 26 24 21 19 16 17 10 9 9 7 8 9 10 13 14 16 18 18 20 21 23 25 28 29 30 30 29 25 20 16 13 11 11 8 6 6 6 6 6 6
Wind_Speed
55 56 63 62 57 60 57 62 51 61 54 54 52 49 44 46 44 44 45 43 42 43 43 45 46 46 45 47 50 46 49 51 54 55 59 62 64 67 70 72 64 60 55 53 53 53 51
56 54 53 56 62 62 63 58 60 53 55 49 51 49 45 44 43 43 44 43 43 43 45 46 46 47 48 51 49 50 50 54 55 57 61 67 72 76 72 65 58 53 53 54 52 51 51
59 57 54 52 52 55 62 62 61 59 61 57 53 57 50 50 48 44 43 45 43 45 45 44 45 48 50 52 52 51 52 55 57 63 70 67 58 52 50 50 50 52 54 53 51 52 57
60 58 56 54 52 51 49 49 50 54 58 55 59 51 47 51 43 43 43 44 46 44 43 43 45 47 52 50 54 54 54 55 64 65 55 50 49 48 48 50 52 55 56 57 53 57 60
60 59 56 55 54 52 51 50 48 48 51 50 55 53 56 57 43 44 44 47 44 42 41 44 45 48 54 52 53 55 61 64 61 56 51 49 47 49 50 52 56 56 59 63 61 63 67
61 59 58 56 53 53 52 50 48 47 49 49 47 56 53 48 39 43 44 44 42 38 40 45 48 48 53 56 56 60 54 50 44 46 47 48 49 52 54 56 59 61 64 64 66 64 68
61 60 57 55 54 49 49 48 47 46 47 47 48 51 49 48 42 44 42 41 42 39 43 49 52 53 54 54 49 51 42 41 42 43 46 49 52 54 57 60 63 66 68 71 71 70 76
61 58 57 52 54 49 47 49 47 44 43 44 44 47 51 52 52 51 41 41 44 44 51 53 51 50 42 42 40 40 39 38 42 47 50 54 56 60 63 65 67 70 71 74 73 75 79
61 58 56 53 55 50 52 53 49 45 42 42 47 53 48 51 50 43 40 43 43 44 51 50 49 49 47 38 37 36 37 41 46 49 52 55 58 60 63 66 69 72 76 77 80 77 81
61 59 57 56 52 50 47 43 45 42 41 44 48 53 52 55 53 45 41 40 42 46 50 49 47 37 34 30 35 38 39 44 49 52 55 58 62 65 67 71 74 75 75 76 72 72 72
61 60 57 54 53 48 47 43 44 44 45 43 47 52 54 58 52 43 46 41 37 50 49 47 28 23 25 31 33 40 42 46 49 52 57 63 65 68 71 74 76 76 72 67 57 39 27
61 59 58 55 49 47 44 48 46 40 42 43 45 54 56 54 53 43 42 41 47 44 48 32 27 26 26 32 35 38 44 48 50 55 60 65 68 71 72 73 70 63 47 30 14 12 13
61 60 58 56 52 57 42 45 46 42 41 41 37 37 51 51 43 43 37 34 37 38 23 21 21 27 29 33 39 43 47 52 54 56 61 63 63 66 63 55 42 24 8 9 8 9 12
62 60 59 55 54 49 45 47 44 38 38 36 29 33 33 36 34 30 29 39 36 21 13 20 22 26 30 35 40 45 50 54 57 59 60 62 52 44 25 22 19 7 2 8 13 10 9
62 60 60 56 51 51 49 47 42 37 29 28 31 29 27 28 25 26 32 32 13 11 16 17 20 26 31 36 40 45 48 51 54 55 53 45 32 20 6 7 5 6 6 11 12 9 12
65 63 60 52 52 53 51 45 41 37 36 31 26 23 22 22 17 25 19 6 11 13 11 14 20 25 31 36 40 43 45 48 49 46 42 20 11 5 1 4 9 9 13 9 14 14 4
65 65 59 53 52 53 50 45 37 35 35 31 25 25 28 28 22 24 12 11 9 7 8 14 19 24 29 34 36 39 43 44 41 31 9 6 11 8 5 9 9 9 12 12 10 5 2
67 66 62 55 53 46 46 39 33 36 38 24 18 23 24 24 30 14 15 10 7 4 9 14 18 23 26 30 34 39 40 38 31 15 8 12 10 2 3 13 17 14 18 12 4 3 5
69 70 65 61 55 45 38 37 38 39 33 25 23 25 29 25 20 19 13 8 3 4 8 13 18 20 25 30 35 37 38 34 24 14 4 11 12 4 4 11 14 19 19 15 12 13 18
69 68 67 62 55 38 39 37 42 39 37 30 29 34 27 26 24 18 13 8 3 2 8 12 15 21 27 31 36 39 39 32 23 7 2 5 8 12 11 12 13 23 12 9 6 21 19
64 58 61 55 48 42 41 42 39 31 24 29 29 30 25 22 20 16 13 8 3 2 6 11 18 23 28 33 36 39 36 31 22 7 7 7 10 11 14 13 12 16 20 10 11 19 16
62 60 52 47 44 43 41 40 31 27 30 34 31 30 29 24 19 17 12 8 3 2 6 13 19 24 29 33 34 34 34 33 21 11 12 16 15 16 16 10 12 17 12 14 8 9 8
62 54 50 42 42 45 39 34 30 31 35 33 32 30 26 21 20 17 14 9 5 3 9 14 19 23 29 31 31 31 31 32 25 14 9 10 15 16 13 16 17 15 13 9 9 10 10
57 53 44 45 46 40 35 28 37 40 37 35 29 28 24 24 21 18 14 10 6 5 8 14 20 25 27 28 29 29 28 27 25 19 11 8 8 7 9 13 12 17 16 18 18 16 19
46 48 46 46 41 37 34 44 41 39 35 32 30 26 25 24 21 18 13 9 6 6 11 15 21 24 26 26 27 26 25 25 25 21 15 11 9 7 3 6 8 16 18 20 22 24 26
48 45 41 43 42 37 47 42 39 35 31 29 27 26 26 24 23 21 14 10 6 6 12 17 19 22 23 25 24 26 24 23 22 21 18 14 9 7 4 4 7 9 12 13 23 17 21
46 46 43 40 46 46 41 39 36 34 31 29 28 26 27 25 24 20 15 11 7 7 12 14 17 19 21 22 23 23 23 22 21 20 19 17 14 10 6 6 8 9 10 13 11 16 20
43 42 44 51 46 43 40 38 35 31 28 26 26 26 27 24 23 18 14 10 6 7 11 13 15 18 18 20 21 21 22 21 20 19 18 17 17 14 11 8 10 14 16 15 17 19 22
36 51 50 45 44 41 38 35 32 27 25 25 26 27 26 24 23 20 15 10 8 8 9 12 13 14 16 17 19 20 20 21 20 19 18 17 15 15 14 12 12 12 12 14 17 19 20
Wind_Direction
240 240 237 235 239 245 243 248 251 245 247 253 252 247 254 251 250 254 254 255 255 257 259 261 263 265 264 264 267 270 273 274 273 277 278 280 280 281 282 286 288 285 284 282 282 282 282
239 239 239 240 237 238 238 248 254 253 264 258 257 245 249 255 252 253 253 253 254 256 256 259 261 263 265 265 267 270 272 273 276 279 281 283 283 286 289 284 282 282 282 283 283 282 283
239 239 240 240 242 242 241 242 246 250 256 262 259 258 247 247 253 254 253 252 252 254 256 259 261 262 265 268 266 268 272 276 279 284 289 291 291 289 288 285 283 283 283 282 285 285 280
240 240 239 240 242 243 244 245 247 249 251 249 257 261 245 248 244 248 251 250 251 254 258 259 261 264 265 265 268 273 275 281 288 288 286 287 291 291 290 288 287 287 285 285 289 285 285
237 238 238 239 241 244 245 246 248 249 252 252 255 258 259 263 236 243 245 248 249 255 259 261 262 265 267 270 273 275 281 284 286 286 288 291 292 290 290 290 289 291 287 289 287 290 286
234 237 237 239 239 242 245 245 247 249 253 256 255 254 261 255 237 242 247 247 251 252 259 260 262 266 271 276 279 285 286 285 285 286 290 291 291 291 291 291 292 291 291 288 289 289 286
232 233 235 235 241 233 241 241 246 248 251 254 256 253 254 248 230 236 244 250 251 255 257 260 262 266 279 283 276 284 285 286 290 292 291 291 293 296 296 296 296 295 294 292 289 289 287
231 230 232 231 233 236 237 240 243 242 244 249 251 247 251 246 232 231 242 255 254 258 255 260 265 269 279 291 287 283 287 292 293 293 294 296 297 295 296 296 296 296 295 292 290 289 289
229 227 227 222 230 230 230 236 238 237 242 246 247 249 253 250 238 233 244 249 254 252 259 265 270 270 277 281 285 288 294 295 295 296 298 299 298 298 298 298 297 296 296 296 295 292 292
227 225 223 223 224 226 232 227 226 234 244 253 248 256 261 253 245 236 236 246 252 255 258 274 281 279 276 281 285 290 295 296 299 302 302 302 301 301 302 301 299 298 298 298 299 297 297
222 222 222 219 222 226 221 227 234 239 248 247 248 250 256 250 244 240 236 245 255 259 271 277 281 279 284 288 293 297 298 302 306 307 306 306 305 305 303 300 299 299 299 300 300 303 305
221 219 219 218 215 220 219 230 233 238 245 243 252 245 250 248 250 240 242 251 257 265 271 273 285 290 291 297 300 304 307 309 309 310 310 307 306 303 301 300 299 302 308 306 300 306 310
218 216 216 216 215 218 216 227 230 238 246 246 247 253 250 254 245 238 237 256 266 264 264 271 288 294 299 305 310 314 315 314 312 310 308 305 304 301 300 299 304 310 313 294 279 299 302
216 213 214 213 214 222 222 225 228 237 248 247 247 254 253 253 240 240 248 268 260 253 273 282 291 301 310 317 317 316 316 315 313 311 308 307 305 304 304 306 310 252 324 320 303 321 351
211 210 212 209 211 212 219 225 225 234 241 241 239 250 244 252 239 255 258 250 230 265 267 285 302 312 319 318 319 318 314 313 312 311 310 311 309 300 333 312 292 236 280 305 312 323 350
208 209 210 209 211 211 217 223 229 234 239 252 241 232 247 216 249 255 218 209 239 250 279 302 314 319 319 320 318 318 319 319 320 322 322 321 326 279 348 338 315 289 306 293 305 317 336
204 207 207 202 211 214 218 222 229 231 232 240 227 229 232 217 234 236 209 214 231 262 300 315 320 318 319 320 322 326 329 332 336 340 343 32 28 83 64 3 310 274 311 299 315 299 292
201 200 200 200 202 205 212 216 224 228 218 209 194 205 221 233 238 187 206 199 230 283 317 322 316 320 324 331 338 343 345 348 354 13 54 28 41 71 33 360 5 332 322 300 333 311 239
194 200 202 204 202 208 208 215 231 226 222 198 208 218 237 203 175 195 183 188 206 303 322 319 324 331 341 349 355 357 360 4 8 12 69 38 62 79 49 12 3 18 15 344 322 172 154
193 198 197 202 203 208 211 227 232 207 196 206 222 229 187 181 184 175 167 175 173 333 319 329 339 351 358 1 7 10 12 8 2 6 157 313 356 38 27 18 32 19 41 27 192 171 146
178 179 191 194 196 208 216 212 186 180 192 214 205 161 177 181 170 162 169 156 140 324 335 349 2 6 7 11 17 19 14 8 3 337 242 301 327 354 6 15 11 11 26 38 95 124 146
174 181 186 188 197 202 190 185 182 183 201 187 166 174 176 171 160 161 156 151 145 17 6 13 15 13 16 22 23 20 16 15 8 360 260 275 303 316 325 340 340 337 11 37 46 60 95
176 177 180 190 193 179 174 174 186 201 179 167 171 173 163 157 163 163 159 157 131 61 24 22 21 21 26 26 24 23 22 18 14 7 353 316 297 297 296 309 324 310 309 329 1 359 7
178 180 191 185 176 177 181 195 184 164 168 172 167 165 163 159 165 167 165 150 115 50 37 30 28 29 28 27 26 25 23 21 17 17 13 6 358 323 312 313 290 299 309 315 319 319 328
185 182 176 179 180 177 185 168 159 169 171 167 167 164 158 163 168 170 161 141 109 61 43 38 35 31 28 26 27 25 25 19 19 19 15 4 8 17 21 302 297 285 293 302 309 311 317
174 171 172 177 181 186 168 157 166 169 167 168 165 163 166 168 172 168 162 142 115 72 49 42 36 31 26 26 24 25 24 19 18 15 12 8 1 5 45 342 288 292 302 302 284 311 308
170 173 174 177 181 156 152 162 167 171 170 170 166 168 168 172 173 172 164 152 132 74 56 44 35 30 24 23 23 24 22 19 16 13 8 7 2 352 324 308 302 281 293 298 282 271 286
173 175 173 162 147 155 160 166 169 170 172 169 170 170 174 177 177 171 169 158 127 81 59 46 35 28 22 21 21 22 20 18 15 10 6 4 2 359 349 320 296 288 290 286 284 283 288
175 161 148 146 155 162 165 167 169 171 170 171 174 177 177 179 179 177 175 163 130 82 62 43 35 26 18 16 18 18 18 14 10 10 3 2 356 352 353 349 336 323 317 313 312 320 318